www.pogodaiklimat.ru

АРХИВ ПОГОДЫ в Kuala Lumpur

Время (UTC), дата Ветер
(напр.,м/с)
 
Видим.   Явления Облачность Т
(С)
Тd
(С)
f
(%)
Тe
(С)
Тes
(С)
Комфортность P
(гПа)
Po
(гПа)
Тmin
(С)
Tmax
(С)
R
(мм)
S
(см)
18 9.01 штиль 0 9000 м мгла 8/1 800 м
[Sc Ac trans Ci fib]
+26.5 +24.1 87 +37 +37 очень
душно
1008.2 1005.7
21 9.01 штиль 0 8000 м мгла 8/1 800 м
[Sc Ac trans Ci sp]
+25.8 +24.0 90 +36 +36 очень
душно
1007.3 1004.8
00 10.01 СЗ 2 7000 м мгла 8/3 570 м
[Cu hum Ac trans Ci sp]
+25.6 +23.5 88 +35 +35 очень
душно
1009.0 1006.5 +24.5
03 10.01 В 1 12 км мгла 8/3 570 м
[Cu med, cong Ac trans Ci sp]
+31.5 +24.9 68 +45 +51 опасность
перегрева
1010.4 1007.9
06 10.01 Ю 2 15 км мгла 8/4 570 м
[Cu med, cong Ac trans Ci sp]
+34.2 +23.6 54 +45 +53 опасность
перегрева
1007.5 1005.1
09 10.01 З 5 15 км мгла 8/3 570 м
[Cu hum Ac trans Ci sp]
+33.0 +26.4 68 +49 +51 опасность
перегрева
1005.8 1003.4
12 10.01 Ю 2 10 км мгла 8/1 800 м
[Sc Ac trans Ci sp]
+30.0 +24.1 71 +42 +42 опасность
перегрева
1008.0 1005.5 +34.9
15 10.01 З 2 9000 м мгла 8/1 800 м
[Sc Ac lent Ci sp]
+28.3 +24.7 81 +40 +40 очень
душно
1009.7 1007.2
18 10.01 С 1 3000 м мгла 8/1 800 м
[Sc Ac trans Ci sp]
+27.5 +24.9 86 +39 +39 очень
душно
1009.3 1006.8
21 10.01 СЗ 2 3000 м мгла 8/1 800 м
[Sc Ac trans Ci sp]
+26.7 +24.9 90 +38 +38 очень
душно
1008.3 1005.8
00 11.01 СЗ 1 2000 м мгла 8/4 500 м
[Cb cap Ac lent Ci sp]
+26.6 +24.9 90 +38 +38 очень
душно
1009.7 1007.2 +25.6
03 11.01 ЮЗ 2 8000 м мгла {туман} 8/4 540 м
[Cu med, cong Ac trans Ci fib]
+31.7 +24.3 65 +44 +49 опасность
перегрева
1010.5 1008.0
06 11.01 ЮЗ 3 6000 м мгла {гроза} 8/4 500 м
[Cb cap Ac trans Ci fib]
+32.4 +25.1 65 +46 +52 опасность
перегрева
1008.9 1006.5
09 11.01 ЮЗ 3 10 км мгла 8/3 570 м
[Cu med, cong Ac lent Ci sp]
+33.9 +23.2 54 +44 +46 опасность
перегрева
1006.5 1004.1
12 11.01 З 1 10 км мгла 8/1 800 м
[Sc Ac trans Ci sp]
+30.5 +22.6 63 +40 +40 очень
душно
1008.7 1006.2 +34.3
15 11.01 С 2 8000 м мгла 8/1 800 м
[Sc Ac trans Ci fib]
+28.5 +23.9 76 +39 +39 очень
душно
1009.8 1007.3
18 11.01 СЗ 2 7000 м мгла 9/1 800 м
[Sc Ac trans Ci fib]
+26.8 +24.2 86 +37 +37 очень
душно
1009.2 1006.7
21 11.01 С 1 7000 м мгла 8/1 800 м
[Sc Ac trans Ci fib]
+25.4 +23.4 89 +34 +34 очень
душно
1007.7 1005.2
00 12.01 С 1 10 км мгла 8/3 500 м
[Cb cap Ac trans Ci sp]
+25.3 +23.3 89 +34 +34 очень
душно
1009.4 1006.9 +24.9
03 12.01 В 2 10 км мгла 8/3 540 м
[Cu med, cong Ac lent Ci sp]
+31.1 +23.9 66 +43 +49 опасность
перегрева
1010.3 1007.8
06 12.01 ЮЗ 3 9000 м мгла 8/3 540 м
[Cu med, cong Ac lent Ci sp]
+30.5 +24.7 71 +43 +50 опасность
перегрева
1008.4 1005.9
09 12.01 ЮЗ 3 10 км мгла 8/3 540 м
[Cu med, cong Ac lent Ci sp]
+32.8 +24.8 63 +46 +48 опасность
перегрева
1005.6 1003.2
12 12.01 З 2 8000 м мгла 8/3 800 м
[Sc diur, vesp Ac lent Ci sp]
+29.1 +24.9 78 +42 +42 опасность
перегрева
1006.9 1004.4 +33.2
15 12.01 С 1 6000 м мгла 8/3 750 м
[Sc Ac lent Ci sp]
+28.2 +24.7 81 +40 +40 очень
душно
1009.2 1006.7
18 12.01 СЗ 1 6000 м мгла 8/3 750 м
[Sc Ac trans Ci sp]
+27.2 +24.6 86 +39 +39 очень
душно
1009.1 1006.6
21 12.01 СВ 1 6000 м мгла 8/3 750 м
[Sc Ac trans Ci sp]
+26.1 +24.5 91 +37 +37 очень
душно
1007.7 1005.2
00 13.01 штиль 0 4000 м мгла 8/4 500 м
[Cb cap Ac lent Ci sp]
+26.2 +24.4 90 +37 +37 очень
душно
1009.3 1006.8 +25.3
03 13.01 Ю 1 6000 м мгла 8/4 500 м
[Cb cap Ac und Ci sp]
+30.3 +24.9 73 +43 +49 опасность
перегрева
1010.2 1007.7
06 13.01 З 5 12 км мгла 8/5 500 м
[Cb cap Ac lent Ci sp]
+32.2 +24.1 62 +44 +48 опасность
перегрева
1008.8 1006.4
09 13.01 СЗ 3 12 км мгла 8/5 240 м
[Cb cap Ac und Ci sp]
+28.1 +24.0 78 +39 +41 очень
душно
1007.8 1005.3
12 13.01 С 2 9000 м мгла {гроза} 8/4 300 м
[Sc Ac lent Cs]
+26.5 +23.7 85 +36 +36 очень
душно
1008.1 1005.6 +32.7
15 13.01 З 1 9000 м мгла 8/3 800 м
[Sc Ac lent Ci sp]
+26.1 +23.6 86 +35 +35 очень
душно
1010.0 1007.5
18 13.01 С 1 8000 м мгла 8/1 800 м
[Sc Ac lent Ci sp]
+25.6 +23.3 87 +34 +34 очень
душно
1010.0 1007.5
21 13.01 С 1 8000 м мгла 8/1 800 м
[Sc Ac lent Ci sp]
+24.8 +22.9 89 +33 +33 очень
душно
1008.4 1005.9
00 14.01 штиль 0 9000 м мгла 8/3 600 м
[Cu hum Ac trans Ci sp]
+24.2 +22.9 92 +32 +32 очень
душно
1009.5 1007.0 +24.1
03 14.01 СЗ 4 12 км мгла 8/1 600 м
[Cu hum Ac trans Ci sp]
+29.8 +24.3 72 +42 +47 опасность
перегрева
1010.6 1008.1
06 14.01 З 2 15 км мгла 8/4 540 м
[Cu med, cong Ac trans Ci sp]
+33.2 +24.1 59 +45 +52 опасность
перегрева
1008.5 1006.1
09 14.01 З 4 12 км мгла 8/4 500 м
[Cb cap Ac lent Ci sp]
+31.7 +25.2 69 +46 +47 опасность
перегрева
1006.4 1004.0
12 14.01 СЗ 3 10 км гроза без осадков 8/4 480 м
[Cb cap Ac und Ci sp]
+29.4 +24.6 75 +42 +42 опасность
перегрева
1009.4 1006.9 +34.2
15 14.01 СВ 1 9000 м мгла 8/3 800 м
[Sc Ac und Ci sp]
+27.2 +24.5 85 +38 +38 очень
душно
1011.4 1008.9
18 14.01 СЗ 1 9000 м зарница 8/4 500 м
[Cb cap Ac lent Ci sp]
+27.0 +24.9 88 +39 +39 очень
душно
1011.1 1008.6
21 14.01 СЗ 3 8000 м зарница 8/6 150 м
[Cb cap Ac und Ci sp]
+26.0 +23.9 88 +36 +36 очень
душно
1010.6 1008.1
00 15.01 С 2 12 км мгла 8/4 240 м
[Sc Ac und Ci sp]
+24.6 +23.0 91 +33 +33 очень
душно
1011.6 1009.1 +24.2 0.8
03 15.01 СЗ 3 15 км мгла 8/3 570 м
[Cu med, cong Ac trans Ci fib]
+29.3 +23.3 70 +40 +44 очень
душно
1012.2 1009.7
06 15.01 З 4 15 км мгла 8/3 570 м
[Cu med, cong Ac trans Ci fib]
+32.9 +24.2 60 +45 +50 опасность
перегрева
1009.4 1007.0
09 15.01 З 7 15 км мгла 8/4 500 м
[Cb cap Ac trans Ci sp]
+31.9 +23.5 61 +43 +43 опасность
перегрева
1007.9 1005.5
12 15.01 СЗ 4 10 км мгла 8/3 800 м
[Sc Ac lent Ci sp]
+29.2 +24.4 75 +41 +41 опасность
перегрева
1009.6 1007.1 +33.8
15 15.01 СЗ 3 10 км зарница 8/4 500 м
[Cb cap Ac lent Ci sp]
+28.1 +24.7 82 +40 +40 очень
душно
1011.7 1009.2
18 15.01 СЗ 2 9000 м зарница 8/5 240 м
[Cb cap Ac und Ci sp]
+26.8 +23.6 83 +37 +37 очень
душно
1010.7 1008.2
21 15.01 ЮЗ 2 7000 м слабый дождь 8/6 90 м
[Cb cap Ac und Cs]
+24.7 +23.6 94 +34 +34 очень
душно
1010.2 1007.7
00 16.01 СВ 1 3000 м дождь {гроза} 10/4 90 м
[Cb cap Ac und Cs]
+24.1 +23.4 96 +32 +33 очень
душно
1012.1 1009.6 +24.1 10
03 16.01 С 3 12 км мгла {дождь} 8/3 540 м
[Cu med, cong Ac lent Ci sp]
+28.1 +24.6 81 +40 +44 очень
душно
1011.6 1009.1
06 16.01 З 4 15 км мгла 8/3 540 м
[Cu med, cong Ac lent Ci sp]
+31.2 +24.3 67 +43 +49 опасность
перегрева
1009.4 1006.9 4
09 16.01 З 5 15 км мгла 8/1 570 м
[Cu hum Ac trans Ci fib]
+31.3 +24.4 67 +44 +45 опасность
перегрева
1006.9 1004.5
12 16.01 З 3 10 км мгла 8/3 800 м
[Sc Ac lent Ci sp]
+28.3 +24.5 80 +40 +40 очень
душно
1008.8 1006.3 +32.2
15 16.01 С 2 10 км мгла 8/3 750 м
[Sc Ac trans Ci fib]
+27.9 +24.8 83 +40 +40 очень
душно
1010.8 1008.3

 

Местоположение метеостанции Kuala Lumpur (Малайзия): широта 3.12 долгота 101.55 высота над уровнем моря 22 м.

В архиве по умолчанию представлена погода в Kuala Lumpur за последнюю неделю. Архивные данные за месяц целиком и за предыдущие месяцы, начиная с января 2011 года, Вы можете получить, выбрав интересующий диапазон дат из раскрывающегося списка и нажав кнопку "Ввод!".

Внимание! Время в таблицах - всемирное. Для получения местного времени необходимо прибавить поправку, которая в Kuala Lumpur равна 7 ч.

Ветер - указаны скорость ветра в м/с - средняя за 10 мин, порывы в срок и между сроками (в фигурных скобках) и направление, откуда дует ветер: С - северный, СВ - северо-восточный, В - восточный, ЮВ - юго-восточный, Ю - южный, ЮЗ - юго-западный, З - западный, СЗ - северо-западный.
Видимость - горизонтальная дальность видимости в метрах или километрах. При видимости от 1 до 10 км при отсутствии осадков обычно наблюдается дымка, при ухудшении видимости до 1 км и менее - туман. В сухую погоду видимость может ухудшаться дымом, пылью или мглою.
Явления - указаны атмосферные явления, наблюдавшиеся в срок или в последний час перед сроком; фигурными скобками обозначены явления, наблюдавшиеся между сроками (за 1-3 часа до срока); квадратными скобками обозначены град или гололедные отложения с указанием их диаметра в мм.
Облачность - указаны через наклонную черту общая и нижняя облачность в баллах и высота нижней границы облаков в метрах; квадратными скобками обозначены формы облаков: Ci - перистые, Cs - перисто-слоистые, Cc - перисто-кучевые, Ac - высококучевые, As - высокослоистые, Sc - слоисто-кучевые, Ns - слоисто-дождевые, Cu - кучевые, Cb - кучево-дождевые. Подробнее классификацию облаков см. в Атласе облаков (PDF).
T - Температура воздуха - температура, измеренная на высоте 2 м над землей.
Td - Температура точки росы - температура, при понижении до которой содержащийся в воздухе водяной пар достигнет насыщения.
f - Относительная влажность воздуха - влажноcть воздуха, измеренная на высоте 2 м над землей.
Te - Эффективная температура - температура, которую ощущает одетый по сезону человек в тени. Характеристика душности погоды. При расчете учитывается влияние влажности воздуха и скорости ветра на теплоощущения человека.
Tes - Эффективная температура на солнце - температура, которую ощущает человек, с поправкой на солнечный нагрев. Характеристика знойности погоды. Зависит от высоты солнца над горизонтом, облачности и скорости ветра. Ночью, в пасмурную погоду, а также при ветре 12 м/с и более поправка равна нулю.
P - Атмосферное давление - приведенное к уровню моря атмосферное давление.
Po - Атмосферное давление - измеренное на уровне метеостанции атмосферное давление.
Tmin - Минимальная температура - минимум температуры воздуха на высоте 2 м над землей.
Tmax - Максимальная температура - максимум температуры воздуха на высоте 2 м над землей.
R - Количество осадков - Количество выпавших осадков, мм. При наведении курсора мыши на число - период времени, за который выпало указанное количество осадков.
S - Снежный покров - Высота снежного покрова, см. При наведении курсора мыши на число - состояние снежного покрова и степень покрытия местности в баллах.